| Station | Date | Time | Temp (°F) | RH (%) | Dew Pt (°F) | Wind Spd (mph) | Wind Dir (°) | Wind Gust (mph) | Latest Rain (In) | Daily Rain (In) | Daily Min Temp (°F) | Daily Max Temp (°F) |
|---|---|---|---|---|---|---|---|---|---|---|---|---|
| Rockpile Upper (Cooley) | 9/4/26 | 2230 | 51.7 0.2 | 90 6 | 48.8 1.9 | 10.0 1.2 | NNW | 331 | 14.2 0.0 | 0.00 | 0.00 | 47.4 4.2 | 74.0 10.6 |
| Rockpile Lower (Cooley) | 9/4/26 | 2215 | 56.2 0.6 | 79 7 | 49.7 1.8 | 4.1 0.5 | NW | 312 | 7.8 1.4 | 0.00 | 0.00 | 50.3 4.5 | 75.9 8.8 |
| Cloverdale-East (Ranch 83) | 9/4/26 | 2230 | 56.0 1.1 | - | - | 1.3 1.0 | SE | 135 | 3.3 1.9 | 0.00 | 0.00 | 43.5 10.9 | 80.2 8.7 |
| Cloverdale-SE (Ranch 38) | 9/4/26 | 2230 | 59.2 1.4 | 73 12 | 50.7 2.9 | 3.0 0.6 | N | 3 | 5.0 0.2 | 0.00 | 0.00 | 50.3 7.1 | 79.8 8.9 |
| Geyserville-North (Hoffman) | 9/4/26 | 2230 | 55.2 3.2 | 83 4 | 50.1 4.3 | 0.4 0.7 | N | 354 | 2.9 0.7 | 0.00 | 0.00 | 45.5 11.9 | 81.8 9.0 |
| Geyserville (Ranch 3) | 9/4/26 | 2230 | 57.2 3.5 | 80 0 | 51.0 3.4 | 0.2 2.0 | N | 351 | 1.3 3.2 | 0.00 | 0.00 | 46.9 12.1 | 79.5 6.4 |
| Geyserville-East (Ranch 40) | 9/4/26 | 2230 | 59.4 0.8 | 74 14 | 51.2 4.1 | 0.6 1.6 | NW | 306 | 2.8 1.1 | 0.00 | 0.00 | 50.0 7.4 | 80.5 10.3 |
| Geyserville-South (Nervo Station) | 9/4/26 | 2230 | 58.8 1.0 | - | - | 2.1 0.7 | NW | 306 | 3.4 0.3 | 0.00 | 0.00 | 48.4 9.4 | 80.5 9.0 |
| Peterson (Ranch 09) | 9/4/26 | 2230 | 54.7 4.4 | 84 8 | 50.0 6.8 | 0.2 0.1 | NW | 325 | 1.1 0.4 | 0.00 | 0.00 | 44.6 12.0 | 78.5 8.7 |
| Crazy Creek Ranch | 9/4/26 | 2230 | 55.2 3.4 | 88 5 | 51.6 5.0 | 0.7 0.4 | N | 4 | 2.0 0.5 | 0.00 | 0.01 | 46.4 10.6 | 79.3 8.7 |
| Whitton Ranch (201e) | 9/4/26 | 2230 | 52.6 5.9 | 91 1 | 49.9 6.1 | 1.3 0.0 | WNW | 292 | 1.8 1.4 | 0.00 | 0.00 | 42.4 14.1 | 80.9 7.2 |
| Lytton East (Shop Hill Bottom) | 9/4/26 | 2230 | 55.1 3.3 | 87 4 | 51.4 4.5 | 1.2 0.2 | WNW | 282 | 2.5 0.5 | 0.00 | 0.00 | 45.4 12.5 | 78.1 5.4 |
| Lytton East (Hill 5) | 9/4/26 | 2230 | 58.4 0.4 | 79 14 | 51.7 4.8 | 1.9 0.2 | W | 275 | 3.3 0.3 | 0.00 | 0.00 | 47.6 10.2 | 79.0 7.1 |
| Lytton West Lower (Lew 6) | 9/4/26 | 2230 | 53.7 4.1 | 90 2 | 50.7 4.7 | 0.7 0.0 | NNE | 20 | 1.4 0.6 | 0.00 | 0.00 | 45.6 11.5 | 77.9 5.6 |
| Lytton West Hill (23PS) | 9/4/26 | 2230 | 59.3 0.1 | 78 15 | 52.6 4.9 | 3.9 2.1 | S | 178 | 6.1 3.0 | 0.00 | 0.00 | 48.5 10.1 | 77.6 4.9 |
| Big River | 9/4/26 | 2230 | 57.6 1.6 | 83 11 | 52.6 5.1 | 0.5 0.2 | W | 264 | 1.6 0.4 | 0.00 | 0.00 | 48.0 10.3 | 77.1 8.2 |
| Jimtown-North (Piccolo Ranch 15) | 9/4/26 | 2230 | 56.5 3.5 | 73 22 | 48.1 10.6 | 0.0 0.0 | N | 2 | 0.9 0.9 | 0.00 | 0.01 | 46.8 9.1 | 79.3 7.8 |
| HWY 128/Chalk Hill Rd (Landslide) | 9/4/26 | 2200 | 56.1 4.7 | 88 2 | 52.5 5.4 | 0.3 0.3 | N | 11 | 1.2 1.2 | 0.00 | 0.00 | 47.9 9.3 | 79.3 8.7 |
| N Chalk Hill Rd (Ranch 63) | 9/4/26 | 2230 | 55.1 3.3 | 85 6 | 50.6 5.1 | 0.0 0.1 | WNW | 284 | 0.9 0.1 | 0.00 | 0.01 | 46.9 6.9 | 77.4 6.8 |
| Newman Knights Valley | 8/18/26 | 0015 | 56.2 1.8 | 85 4 | 51.7 0.4 | 0.8 3.5 | NE | 55 | 2.3 5.8 | 0.00 | 0.00 | 55.0 1.2 | 88.3 0.6 |
| Knights Valley (Bavarian Lion) | 9/4/26 | 2230 | 50.8 7.1 | 90 1 | 48.1 7.3 | 0.0 0.3 | SSE | 151 | 0.1 1.2 | 0.00 | 0.00 | 47.7 5.2 | 77.6 8.5 |
| Red Tail | 9/4/26 | 2230 | 53.4 5.2 | 85 5 | 49.0 6.5 | 2.3 2.1 | ENE | 72 | 3.2 2.0 | 0.00 | 0.00 | 45.6 9.7 | 78.6 8.9 |
| Franz Valley (Stornetta) | 9/4/26 | 2230 | 52.6 5.8 | 91 2 | 50.2 6.4 | 0.0 0.1 | N | 0 | 0.0 0.8 | 0.00 | 0.01 | 48.1 5.6 | 76.6 8.1 |
| Upper Dry Creek Valley | 9/4/26 | 2230 | 60.7 3.2 | 69 22 | 50.4 4.5 | 2.1 0.9 | NW | 309 | 4.3 2.0 | 0.00 | 0.00 | 44.3 12.9 | 80.7 8.7 |
| Lower Dry Creek Valley | 9/4/26 | 2230 | 55.0 3.1 | 87 13 | 51.1 7.0 | 0.0 0.0 | N | 0 | 0.0 0.0 | 0.00 | 0.00 | 47.5 10.0 | 78.1 5.7 |
| Max | 60.7 | 91 | 52.6 | 10.0 | - | 14.2 | 0.00 | 0.01 | 50.3 | 81.8 | ||
| Avg | 55.9 | 83 | 50.5 | 1.5 | - | 3.0 | 0.00 | - | - | - | ||
| Min | 50.8 | 69 | 48.1 | 0.0 | - | 0.0 | 0.00 | 0.00 | 42.4 | 74.0 |
| Station | Date | Time | Temp (°F) | RH (%) | Dew Pt (°F) | Wind Spd (mph) | Wind Dir (°) | Wind Gust (mph) | Latest Rain (In) | Daily Rain (In) | Daily Max Temp (°F) | Daily Min Temp (°F) |
|---|---|---|---|---|---|---|---|---|---|---|---|---|
| Windsor-NW (Ranch 8) | 9/4/26 | 2230 | 58.0 1.9 | 83 0 | 53.0 1.8 | 0.0 0.0 | SE | 134 | 0.0 0.0 | 0.00 | 0.01 | 77.8 6.7 | 53.4 5.4 |
| Windsor-East (Ranch 16) | 9/4/26 | 2230 | 57.0 2.5 | 84 8 | 52.4 5.0 | 0.5 0.4 | SE | 128 | 1.4 0.0 | 0.00 | 0.00 | 76.9 6.6 | 49.4 9.7 |
| Mark West-North (Ranch 14) | 9/4/26 | 2230 | 58.9 1.7 | 81 11 | 53.2 5.1 | 0.7 0.5 | SE | 126 | 2.6 0.8 | 0.00 | 0.00 | 76.9 6.3 | 50.8 9.0 |
| Windsor-SE (Silk Rd) | 9/4/26 | 2230 | 55.4 4.2 | 88 4 | 51.9 5.3 | 0.0 0.1 | N | 0 | 0.0 0.9 | 0.00 | 0.00 | 75.8 4.4 | 49.9 8.6 |
| Fulton-NW (Ranch 5) | 9/4/26 | 2230 | 56.9 3.4 | 88 6 | 53.3 5.2 | 1.2 0.5 | ENE | 76 | 2.7 0.6 | 0.00 | 0.00 | 74.8 5.0 | 49.9 9.7 |
| Bisordi (Fulton) | 9/4/26 | 2230 | 56.9 2.8 | 88 5 | 53.4 4.3 | 1.1 0.7 | ESE | 121 | 2.4 0.7 | 0.00 | 0.00 | 75.2 5.8 | 49.1 10.0 |
| Windsor-South (Laughlin Rd) | 9/4/26 | 2230 | 57.3 3.8 | 84 1 | 52.6 4.2 | - | - | - | 0.00 | 0.00 | 76.4 5.1 | 51.6 7.0 |
| Fulton-SE (Barnes Rd) | 9/4/26 | 2230 | 59.6 1.3 | 83 8 | 54.6 3.8 | 2.0 2.0 | ESE | 109 | 4.5 4.5 | 0.00 | 0.01 | 75.6 5.6 | 52.3 7.9 |
| Fulton-SW (Ranch 21) | 9/4/26 | 2230 | 56.5 3.4 | 88 4 | 53.1 4.4 | 1.7 0.9 | SE | 136 | 3.3 1.2 | 0.00 | 0.00 | 75.3 5.3 | 49.9 7.5 |
| NW Santa Rosa (Piner Road) | 9/4/26 | 2230 | 56.0 4.3 | 100 0 | 56.0 4.3 | 0.0 0.0 | WNW | 297 | 0.4 0.5 | 0.00 | 0.00 | 75.2 5.3 | 49.6 6.6 |
| River Rd South (Denner Ranch) | 9/4/26 | 2230 | 54.7 5.4 | 62 62 | 10.5 69.2 | 0.2 0.8 | SW | 218 | 1.3 1.3 | - | - | 74.9 5.7 | 49.3 6.7 |
| West Santa Rosa (LOV Vineyard) | 8/26/26 | 0900 | 53.3 5.2 | 97 6 | 52.4 3.5 | 1.0 0.1 | SW | 224 | 3.6 0.0 | 0.00 | 0.00 | 53.6 5.2 | 50.2 1.8 |
| Guerneville Rd (Prokopakis) | 9/4/26 | 2230 | 54.7 6.2 | 88 0 | 51.2 6.0 | - | - | - | 0.00 | 0.00 | 80.3 5.1 | 50.2 6.6 |
| SunnyView Vineyard (SCWC) | 9/4/26 | 2230 | 53.7 6.2 | 91 1 | 51.0 6.5 | 0.0 0.2 | N | 0 | 0.0 1.1 | 0.00 | 0.01 | 75.6 5.3 | 48.7 6.8 |
| Guerneville Rd West (Balletto) | 9/4/26 | 2230 | 55.0 6.1 | 90 3 | 52.2 7.1 | 0.0 0.4 | N | 0 | 0.0 1.9 | 0.00 | 0.01 | 75.1 4.4 | 50.1 8.1 |
| Sanchietti Ranch | 9/4/26 | 2230 | 55.7 5.5 | 90 0 | 52.9 5.5 | 1.3 0.3 | SE | 132 | 2.6 1.5 | 0.00 | 0.01 | 75.9 4.3 | 49.4 9.1 |
| Occidental Rd (Sebastopol) | 9/4/26 | 2230 | 54.7 6.0 | 100 0 | 54.8 6.0 | 0.1 1.6 | ENE | 78 | 1.3 3.1 | 0.00 | 0.00 | 76.4 5.7 | 48.7 8.8 |
| Harper's Rest (Windsor-West) | 9/4/26 | 2230 | 53.5 5.3 | 89 0 | 50.5 5.2 | 1.5 0.3 | W | 260 | 2.7 0.9 | 0.00 | 0.00 | 78.1 5.2 | 49.2 6.6 |
| Lower Westside Rd (Ranch 12) | 9/4/26 | 2230 | 54.4 5.6 | 91 3 | 51.9 4.6 | 0.4 0.3 | W | 267 | 1.1 0.7 | 0.00 | 0.00 | 75.7 5.3 | 49.8 5.8 |
| Guerneville (Laughlin Rd) | 9/4/26 | 2230 | 53.7 3.5 | 93 0 | 51.8 3.4 | 0.0 0.0 | NE | 41 | 0.5 0.1 | 0.00 | 0.00 | 74.0 4.4 | 51.5 4.9 |
| Korbel (Winery) | 9/4/26 | 2230 | 55.4 3.3 | 93 0 | 53.6 3.3 | 0.0 0.4 | N | 0 | 0.0 2.0 | 0.00 | 0.00 | 74.4 3.7 | 52.9 4.5 |
| Forestville (Shone Farms) | 9/4/26 | 2230 | 56.9 3.2 | 87 3 | 53.0 4.1 | 0.6 0.2 | SSE | 166 | 1.9 1.0 | 0.00 | 0.01 | 75.7 5.2 | 48.1 9.6 |
| Forestville-NE (Ranch 30) | 9/4/26 | 2230 | 53.5 5.5 | 92 0 | 51.4 5.5 | 0.9 0.7 | SE | 136 | 2.1 2.3 | 0.00 | 0.00 | 76.3 5.6 | 48.9 7.7 |
| Foggy Bend (Ranch 41) | 9/4/26 | 2230 | 56.0 4.7 | 90 1 | 53.2 4.3 | 0.1 3.1 | SSW | 204 | 0.8 6.2 | 0.00 | 0.00 | 74.9 5.0 | 51.1 6.6 |
| Last Stop | 9/4/26 | 2230 | 53.0 5.0 | 91 3 | 50.4 4.0 | 0.8 0.1 | W | 272 | 1.4 1.8 | 0.00 | 0.00 | 77.2 7.3 | 47.8 10.0 |
| Green Valley Vineyard | 9/4/26 | 2230 | 53.5 6.2 | 93 6 | 51.6 4.4 | 0.7 1.4 | WNW | 287 | 1.8 2.6 | 0.00 | 0.01 | 73.5 3.5 | 49.0 7.9 |
| Park Royal | 9/4/26 | 2230 | 57.3 3.0 | 87 4 | 53.6 4.2 | - | - | - | 0.00 | 0.01 | 74.6 4.2 | 49.3 8.9 |
| Merino | 9/4/26 | 2230 | 53.6 6.4 | 95 0 | 52.3 6.5 | 0.2 0.0 | SE | 131 | 1.5 0.1 | 0.00 | 0.01 | 77.6 4.9 | 48.6 8.2 |
| Green Valley (Sanchietti) | 9/4/26 | 2230 | 52.0 8.0 | - | - | - | - | - | - | - | 76.6 5.2 | 46.2 9.8 |
| Keefer Ranch (Green Valley) | 9/4/26 | 2230 | 52.7 7.6 | 93 8 | 50.8 5.1 | - | - | - | 0.00 | 0.00 | 73.8 3.3 | 47.2 10.1 |
| Graton-West (Dutton Ranch) | 9/4/26 | 2230 | 54.2 6.9 | 100 0 | 54.2 6.9 | 0.3 0.9 | SSE | 150 | 1.5 2.6 | 0.00 | 0.00 | 74.7 2.3 | 48.1 9.5 |
| Graton-South (Mill Station Rd) | 9/4/26 | 2230 | 53.8 6.4 | 92 1 | 51.6 6.2 | 0.0 0.0 | N | 0 | 0.0 1.3 | 0.00 | 0.00 | 72.8 3.1 | 46.8 11.2 |
| Occidental (Horseshoe Bend) | 9/4/26 | 2230 | 54.3 3.4 | 95 1 | 53.0 3.2 | - | - | - | 0.00 | 0.00 | 70.9 3.8 | 51.0 6.4 |
| Sexton Valley (Jacqueline's Blk) | 9/4/26 | 2230 | 54.1 6.4 | 93 0 | 52.2 6.4 | 0.8 1.1 | W | 261 | 1.8 4.3 | 0.00 | 0.01 | 74.0 3.2 | 47.6 11.6 |
| Sebastopol Hills (Burnside Rd) | 9/4/26 | 2230 | 56.4 2.3 | 93 5 | 54.4 3.9 | 0.6 2.6 | SSW | 207 | 1.6 5.0 | 0.00 | 0.00 | 70.5 3.2 | 50.9 7.7 |
| Pleasant Hill | 9/4/26 | 2230 | 54.6 4.8 | 91 3 | 52.0 5.5 | 1.7 0.7 | WSW | 255 | 2.5 3.7 | 0.00 | 0.00 | 74.4 2.1 | 48.4 10.7 |
| Seaview/Fort Ross (Hirsch) | 9/4/26 | 2230 | 53.6 0.2 | 87 10 | 49.9 3.1 | 3.4 1.4 | N | 10 | 5.8 2.0 | 0.00 | 0.01 | 66.0 5.1 | 49.1 4.1 |
| Max | 59.6 | 100 | 56.0 | 3.4 | - | 5.8 | 0.00 | 0.01 | 80.3 | 53.4 | ||
| Avg | 55.2 | 90 | 51.3 | 0.7 | - | 1.7 | 0.00 | - | - | - | ||
| Min | 52.0 | 62 | 10.5 | 0.0 | - | 0.0 | 0.00 | 0.00 | 66.0 | 46.2 |
| Station | Date | Time | Temp (°F) | RH (%) | Dew Pt (°F) | Wind Spd (mph) | Wind Dir (°) | Wind Gust (mph) | Latest Rain (In) | Daily Rain (In) | Daily Min Temp (°F) | Daily Max Temp (°F) |
|---|---|---|---|---|---|---|---|---|---|---|---|---|
| Upper Rincon Valley | 9/4/26 | 2230 | 53.0 4.6 | 92 4 | 50.8 5.8 | 1.6 0.6 | N | 8 | 2.5 0.7 | 0.00 | 0.00 | 48.8 6.5 | 74.0 7.1 |
| Lower Bennett Valley | 9/4/26 | 2230 | 54.7 4.1 | 92 3 | 52.6 5.1 | 1.0 0.1 | S | 180 | 2.5 0.3 | 0.00 | 0.00 | 47.5 7.6 | 75.2 9.0 |
| Kenwood (Wildwood) | 9/4/26 | 2230 | 54.4 5.1 | 89 7 | 51.2 7.1 | 1.5 1.5 | NE | 45 | 2.6 2.6 | 0.00 | 0.00 | 52.7 3.4 | 76.4 8.8 |
| Crane Creek (Ranch 62) | 9/4/26 | 2230 | 55.3 4.6 | 92 4 | 52.9 5.9 | 0.9 0.9 | NE | 41 | 1.9 1.9 | 0.00 | 0.00 | 53.6 6.1 | 78.7 10.2 |
| Rohnert Park-West (Stony Point) | 9/4/26 | 2230 | 54.3 5.9 | 92 2 | 52.2 6.4 | 0.0 3.2 | N | 0 | 0.0 8.4 | 0.00 | 0.01 | 50.0 10.0 | 73.6 4.9 |
| Rice-Spivak Vineyard | 9/4/26 | 2230 | 55.5 4.4 | - | - | - | - | - | - | - | 48.1 11.8 | 74.6 5.1 |
| Cartograph Wines Base | 9/4/26 | 2230 | 56.9 2.3 | 93 3 | 55.0 3.1 | 2.9 2.6 | SSW | 203 | 6.5 4.7 | 0.00 | 0.00 | 50.0 9.2 | 71.8 3.5 |
| Cartograph Wines Remote | 9/4/26 | 2230 | 55.2 4.7 | - | - | - | - | - | - | - | 49.4 10.5 | 73.2 3.7 |
| Penngrove (Asellus) | 9/4/26 | 2230 | 53.9 6.3 | 93 0 | 51.9 6.4 | 0.1 0.7 | NW | 317 | 1.1 1.6 | 0.00 | 0.09 | 52.3 5.1 | 75.3 6.6 |
| Sonoma Valley (Bedrock) | 9/4/26 | 2230 | 54.1 4.8 | 84 9 | 49.5 7.5 | - | - | - | 0.00 | 0.00 | 48.6 6.0 | 75.3 9.6 |
| Sonoma-West (Arnold) | 9/4/26 | 2230 | 56.8 4.0 | 84 8 | 51.8 6.3 | 1.3 0.5 | WSW | 248 | 3.5 1.2 | 0.00 | 0.01 | 48.8 7.3 | 77.7 10.2 |
| Sonoma Valley HS | 9/4/26 | 2230 | 57.8 2.5 | 90 10 | 55.0 5.3 | 1.0 0.2 | SW | 236 | 2.5 0.3 | 0.00 | 0.00 | 51.6 4.0 | 77.2 10.9 |
| Sonoma East (Bundschu01) | 9/4/26 | 2230 | 55.4 5.3 | 86 7 | 51.2 7.3 | 1.2 0.3 | NE | 45 | 2.4 0.4 | 0.00 | 0.00 | 49.4 1.9 | 77.9 9.3 |
| Sonoma-SE (Napoli) | 9/4/26 | 2230 | 57.3 3.2 | 84 8 | 52.6 5.8 | 1.0 1.0 | N | 4 | 2.7 2.7 | 0.00 | 0.01 | 52.3 0.1 | 79.4 10.2 |
| Schellville (Sasaki) | 2/7/26 | 1900 | 53.4 2.2 | 88 10 | 49.9 1.0 | 3.3 1.8 | SW | 225 | 5.8 4.0 | 0.00 | 0.00 | 47.0 0.8 | 62.8 8.4 |
| Petaluma (Ranch 10) | 9/4/26 | 2230 | 57.4 3.4 | 88 3 | 54.1 4.3 | 0.5 1.1 | NNW | 330 | 2.1 2.8 | 0.00 | 0.00 | 54.9 3.0 | 76.3 8.2 |
| Carneros (Ranch 71) | 9/4/26 | 2230 | 57.7 2.2 | 89 4 | 54.5 3.6 | 6.0 3.8 | WNW | 291 | 11.9 5.5 | 0.00 | 0.00 | 54.0 3.4 | 75.6 7.6 |
| Ricci Vineyards (Carneros) | 9/4/26 | 2230 | 58.6 2.1 | 88 4 | 55.0 3.2 | 8.6 4.6 | WNW | 293 | 14.7 8.4 | 0.00 | 0.01 | 53.6 0.5 | 77.6 8.5 |
| Carneros Upper (Ranch 81) | 9/4/26 | 2230 | 57.5 2.3 | 88 12 | 53.9 5.8 | 4.2 2.1 | NW | 313 | 7.3 1.0 | - | - | 53.4 3.7 | 76.6 9.3 |
| Carneros Lower (Ranch 81) | 9/4/26 | 2230 | 57.7 1.9 | 88 88 | 54.2 112.3 | 2.9 2.7 | NNW | 345 | 6.1 4.0 | 0.00 | 0.01 | 52.4 1.3 | 80.1 11.6 |
| Max | 58.6 | 93 | 55.0 | 8.6 | - | 14.7 | 0.00 | 0.09 | 54.9 | 80.1 | ||
| Avg | 56.0 | 89 | 52.8 | 2.2 | - | 4.4 | 0.00 | - | - | - | ||
| Min | 53.0 | 84 | 49.5 | 0.0 | - | 0.0 | 0.00 | 0.00 | 47.5 | 71.8 |